Starlink 6270

operational
NORAD ID: 56421 Int'l Des: 2023-061 Owner: SPXS Country: US Constellation: starlink
LEOCIRCULAR

关于 Starlink 6270

正在加载描述...

实时位置

正在加载3D地球...

即将过境

高度历史

Altitude vs Time

uPlot chart will show altitude changes over time

两行轨道根数

1 56421U 23061AZ 25306.27844091 -.00000360 00000-0 -11551-4 0 9999
2 56421 43.0015 144.2056 0001088 273.1462 86.9255 15.02533844137884
Epoch: Nov 2, 2025 • Age: 34 hours

当前状态

高度 558.7 km
速度 7.59 km/s
星下点 19.80°N, 128.79°W
发射日期 May 4, 2023
运行时间 2.5 years
类型 internet

技术详情

分类 Payload
质量 305.00 kg
干质量 290.00 kg
总质量 305.00 kg
长度 0.20 m
直径 2.80 m
跨度 9.00 m
形状 Box + pan
制造商 SPXS
平台类型 Starlink
阶段状态 In Orbit
所有者/国家 SPXS/US

大型星座

Loading constellations...